20050323,149
20050324,297
20050325,299
20050328,301
20050329,375
20050330,408
20050331,435
20050401,562
20050404,875
20050405,1018
20050406,1081
20050407,1124
20050408,1167
20050411,1219
20050412,1270
20050413,1319
20050414,1469
20050415,1552
20050418,1606
20050419,1647
20050420,1679
20050421,1704
20050422,1792
20050425,1835
20050426,1868
20050427,1951
20050428,1983
20050502,2009
20050506,2140
20050509,2165
20050510,2171
20050511,2203
20050512,2256
20050513,2268
20050516,2268
20050517,2278
20050518,2293
20050519,2360
20050520,2391
20050523,2423
20050524,2461
20050525,2482
20050526,2635
20050527,2679
20050530,2737
20050531,2781
20050601,2812
20050602,2945
20050603,2993
20050606,3027
20050607,3048
20050608,3104
20050609,3116
20050610,3175
20050613,3263
20050614,3318
20050615,3359
20050616,3457
20050617,3570
20050620,3657
20050621,3674
20050622,3708
20050623,3794
20050624,3865
20050627,3909
20050628,3974
20050629,4045
20050630,4099
20050701,4145
20050704,4447
20050705,4493
20050706,4562
20050707,4647
20050708,4734
20050711,4815
20050712,4882
20050713,4914
20050714,5009
20050715,5054
20050719,5006
20050720,5073
20050721,5046
20050722,5034
20050725,5078
20050726,5093
20050727,5139
20050728,5115
20050729,5129
20050801,5167
20050802,5259
20050803,5246
20050804,5187
20050805,5132
20050808,5146
20050809,5232
20050810,5330
20050811,5297
20050812,5253
20050815,5211
20050816,5207
20050817,5164
20050818,5153
20050819,5131
20050822,5184
20050823,5165
20050824,5128
20050825,5087
20050826,5110
20050829,5061
20050830,5105
20050831,5108
20050901,5117
20050902,5200
20050905,5205
20050906,5194
20050907,5097
20050908,5036
20050909,5050
20050912,5062
20050913,5077
20050914,5046
20050915,5105
20050916,5102
20050920,5175
20050921,5176
20050922,5143
20050926,5190
20050927,5166
20050928,5256
20050929,5309
20050930,5249
20051003,5198
20051004,5151
20051005,5040
20051006,4949
20051007,4865
20051011,4879
20051012,4860
20051013,4816
20051014,4676
20051017,4665
20051018,4610
20051019,4545
20051020,4538
20051021,4513
20051024,4455
20051025,4502
20051026,4512
20051027,4525
20051028,4476
20051031,4509
20051101,4534
20051102,4520
20051104,4512
20051107,4510
20051108,4514
20051109,4483
20051110,4472
20051111,4487
20051114,4434
20051115,4412
20051116,4406
20051117,4435
20051118,4465
20051121,4443
20051122,4326
20051124,4331
20051125,4338
20051128,4364
20051129,4338
20051130,4322
20051201,4342
20051202,4374
20051205,4369
20051206,4354
20051207,4369
20051208,4320
20051209,4343
20051212,4409
20051213,4469
20051214,4442
20051215,4411
20051216,4401
20051219,4419
20051220,4483
20051221,4534
20051222,4561
20051226,4603
20051227,4577
20051228,4637
20051229,4660
20051230,4600
20060104,4673
20060105,4699
20060106,4742
20060110,3677
20060111,4094
20060112,4400
20060113,4709
20060116,5007
20060117,5222
20060118,5296
20060119,5563
20060120,5756
20060123,5851
20060124,6104
20060125,6238
20060126,6489
20060127,6704
20060130,6823
20060131,7033
20060201,7154
20060202,7759
20060203,7824
20060206,8083
20060207,8300
20060208,8384
20060209,8614
20060210,8791
20060213,8850
20060214,9006
20060215,9117
20060216,9245
20060217,9250
20060220,9316
20060221,9526
20060222,9615
20060223,9903
20060224,9980
20060227,10101
20060228,10228
20060301,10173
20060302,10412
20060303,10430
20060306,10549
20060307,10570
20060308,10587
20060309,10882
20060310,10986
20060313,11136
20060314,11199
20060315,11218
20060316,11179
20060317,11349
20060320,11515
20060322,11586
20060323,11620
20060324,11731
20060327,11835
20060328,11900
20060329,12007
20060330,12044
20060331,12041
20060403,12231
20060404,12314
20060405,12284
20060406,12465
20060407,12500
20060410,12541
20060411,12511
20060412,12315
20060413,12366
20060414,12319
20060417,12179
20060418,12359
20060419,12341
20060420,12323
20060421,12367
20060424,12165
20060425,12300
20060426,12391
20060427,12562
20060428,12497
20060501,12557
20060502,12633
20060508,12777
20060509,12724
20060510,12557
20060511,12531
20060512,12416
20060515,12500
20060516,12247
20060517,12352
20060518,12189
20060519,12342
20060522,12193
20060523,11981
20060524,12154
20060525,12035
20060526,12253
20060529,12286
20060530,12245
20060531,12095
20060601,12139
20060602,12239
20060605,12159
20060606,12018
20060607,11829
20060608,11492
20060609,11637
20060612,11783
20060613,11507
20060614,11621
20060615,11741
20060616,11986
20060619,12043
20060620,11965
20060621,11981
20060622,12260
20060623,12151
20060626,12155
20060627,12173
20060628,12042
20060629,12188
20060630,12414
20060703,12438
20060704,12545
20060705,12439
20060706,12317
20060707,12264
20060710,12315
20060711,12281
20060712,12155
20060713,12197
20060714,11983
20060718,11745
20060719,11745
20060720,12095
20060721,11962
20060724,11998
20060725,12122
20060726,12049
20060727,12179
20060728,12283
20060731,12352
20060801,12351
20060802,12443
20060803,12396
20060804,12441
20060807,12215
20060808,12310
20060809,12446
20060810,12492
20060811,12549
20060814,12774
20060815,12843
20060816,12998
20060817,12972
20060818,13063
20060821,12948
20060822,13080
20060823,13035
20060824,12924
20060825,12889
20060828,12789
20060829,12881
20060830,12931
20060831,13039
20060901,13003
20060904,13140
20060905,13180
20060906,13109
20060907,12925
20060908,12979
20060911,12800
20060912,12708
20060913,12608
20060914,12715
20060915,12689
20060919,12699
20060920,12572
20060921,12669
20060922,12602
20060925,12603
20060926,12571
20060927,12831
20060928,12954
20060929,12998
20061002,13041
20061003,12939
20061004,12771
20061005,12977
20061006,12977
20061010,12856
20061011,12681
20061012,12665
20061013,12852
20061016,12988
20061017,12933
20061018,13013
20061019,13093
20061020,13177
20061023,13262
20061024,13246
20061025,13147
20061026,13160
20061027,13082
20061030,12882
20061031,12961
20061101,13025
20061102,12986
20061106,12958
20061107,12923
20061108,12737
20061109,12731
20061110,12746
20061113,12633
20061114,12819
20061115,12781
20061116,12711
20061117,12542
20061120,12215
20061121,12243
20061122,12443
20061124,12368
20061127,12537
20061128,12530
20061129,12686
20061130,12841
20061201,12886
20061204,12920
20061205,12854
20061206,12973
20061207,12988
20061208,12997
20061211,13090
20061212,13107
20061213,13148
20061214,13211
20061215,13234
20061218,13247
20061219,13110
20061220,13271
20061221,13281
20061222,13232
20061225,13126
20061226,13255
20061227,13225
20061228,13244
20061229,13231
20070104,13337
20070105,13223
20070109,13043
20070110,12875
20070111,12993
20070112,13196
20070115,13313
20070116,13318
20070117,13303
20070118,13362
20070119,13415
20070122,13468
20070123,13348
20070124,13410
20070125,13214
20070126,13189
20070129,13261
20070130,13178
20070131,13018
20070201,13130
20070202,13144
20070205,13024
20070206,13172
20070207,13080
20070208,12875
20070209,12991
20070213,13067
20070214,13077
20070215,13090
20070216,13041
20070219,13084
20070220,13132
20070221,13065
20070222,13184
20070223,13312
20070226,13352
20070227,13206
20070228,12752
20070301,12630
20070302,12577
20070305,12179
20070306,12375
20070307,12378
20070308,12569
20070309,12594
20070312,12666
20070313,12555
20070314,12237
20070315,12320
20070316,12547
20070319,12639
20070320,12741
20070322,12879
20070323,12892
20070326,12903
20070327,12820
20070328,12834
20070329,12837
20070330,12839
20070402,12551
20070403,12520
20070404,12639
20070405,12549
20070406,12469
20070409,12528
20070410,12506
20070411,12444
20070412,12284
20070413,12106
20070416,12176
20070417,12090
20070418,12188
20070419,12018
20070420,11968
20070423,11994
20070424,11994
20070425,11916
20070426,11898
20070427,11861
20070501,11831
20070502,11873
20070507,12020
20070508,11983
20070509,12025
20070510,11953
20070511,11827
20070514,11835
20070515,11723
20070516,11638
20070517,11569
20070518,11483
20070521,11581
20070522,11707
20070523,11761
20070524,11713
20070525,11549
20070528,11595
20070529,11681
20070530,11643
20070531,11707
20070601,11692
20070604,11647
20070605,11679
20070606,11697
20070607,11677
20070608,11438
20070611,11428
20070612,11336
20070613,11237
20070614,11315
20070615,11424
20070618,11509
20070619,11446
20070620,11467
20070621,11238
20070622,11149
20070625,11040
20070626,11022
20070627,10886
20070628,10973
20070629,11106
20070702,11116
20070703,11143
20070704,11059
20070705,11087
20070706,10979
20070709,11001
20070710,11003
20070711,10873
20070712,10815
20070713,10888
20070717,10855
20070718,10705
20070719,10745
20070720,10730
20070723,10538
20070724,10594
20070725,10486
20070726,10355
20070727,10191
20070730,10186
20070731,10204
20070801,10063
20070802,10400
20070803,10328
20070806,10312
20070807,10255
20070808,10203
20070809,10289
20070810,10098
20070813,10199
20070814,10157
20070815,9951
20070816,9818
20070817,9492
20070820,9657
20070821,9775
20070822,9755
20070823,9900
20070824,9868
20070827,9871
20070828,9887
20070829,9744
20070830,9760
20070831,9938
20070903,9888
20070904,9832
20070905,9632
20070906,9612
20070907,9581
20070910,9408
20070911,9435
20070912,9370
20070913,9352
20070914,9382
20070918,9171
20070919,9391
20070920,9341
20070921,9240
20070925,9306
20070926,9393
20070927,9612
20070928,9612
20071001,9627
20071002,9692
20071003,9919
20071004,9847
20071005,9940
20071009,10012
20071010,9933
20071011,9950
20071012,9848
20071015,9803
20071016,9615
20071017,9424
20071018,9533
20071019,9501
20071022,9408
20071023,9404
20071024,9337
20071025,9249
20071026,9374
20071029,9471
20071030,9473
20071031,9587
20071101,9693
20071102,9534
20071105,9412
20071106,9398
20071107,9244
20071108,9078
20071109,8939
20071112,8693
20071113,8736
20071114,8910
20071115,8937
20071116,8801
20071119,8689
20071120,8735
20071121,8645
20071122,8669
20071126,8843
20071127,8914
20071128,8926
20071129,9096
20071130,9127
20071203,9139
20071204,8987
20071205,9023
20071206,9121
20071207,9222
20071210,9203
20071211,9251
20071212,9260
20071213,9022
20071214,8940
20071217,8696
20071218,8714
20071219,8605
20071220,8500
20071221,8585
20071225,8654
20071226,8774
20071227,8722
20071228,8575
20080104,8217
20080107,8069
20080108,8126
20080109,8250
20080110,8128
20080111,7957
20080115,7738
20080116,7487
20080117,7645
20080118,7751
20080121,7452
20080122,7032
20080123,7180
20080124,7360
20080125,7670
20080128,7445
20080129,7656
20080130,7642
20080131,7782
20080201,7707
20080204,7853
20080205,7804
20080206,7456
20080207,7455
20080208,7406
20080212,7270
20080213,7284
20080214,7567
20080215,7643
20080218,7740
20080219,7804
20080220,7613
20080221,7802
20080222,7773
20080225,7946
20080226,7866
20080227,7994
20080228,8006
20080229,7890
20080303,7536
20080304,7452
20080305,7424
20080306,7561
20080307,7363
20080310,7147
20080311,7233
20080312,7318
20080313,7145
20080314,6991
20080317,6776
20080318,6889
20080319,7104
20080321,7323
20080324,7394
20080325,7462
20080326,7534
20080327,7485
20080328,7555
20080331,7400
20080401,7416
20080402,7693
20080403,7807
20080404,7697
20080407,7768
20080408,7643
20080409,7485
20080410,7308
20080411,7491
20080414,7319
20080415,7374
20080416,7519
20080417,7684
20080418,7748
20080421,7888
20080422,7795
20080423,7855
20080424,7783
20080425,7928
20080428,8109
20080430,8217
20080501,8088
20080502,8283
20080507,8455
20080508,8441
20080509,8169
20080512,8201
20080513,8229
20080514,8436
20080515,8566
20080516,8591
20080519,8611
20080520,8505
20080521,8350
20080522,8446
20080523,8436
20080526,8223
20080527,8295
20080528,8137
20080529,8313
20080530,8435
20080602,8443
20080603,8278
20080604,8390
20080605,8420
20080606,8398
20080609,8249
20080610,8164
20080611,8120
20080612,7991
20080613,7942
20080616,8072
20080617,8093
20080618,8142
20080619,7957
20080620,7850
20080623,7824
20080624,7804
20080625,7787
20080626,7749
20080627,7610
20080630,7678
20080701,7715
20080702,7563
20080703,7523
20080704,7489
20080707,7544
20080708,7377
20080709,7391
20080710,7458
20080711,7395
20080714,7323
20080715,7158
20080716,7101
20080717,7160
20080718,7096
20080722,7215
20080723,7344
20080724,7546
20080725,7393
20080728,7435
20080729,7321
20080730,7456
20080731,7443
20080801,7249
20080804,7057
20080805,7049
20080806,7320
20080807,7203
20080808,7236
20080811,7286
20080812,7234
20080813,7094
20080814,7006
20080815,7085
20080818,7175
20080819,7006
20080820,7065
20080821,7040
20080822,6944
20080825,7051
20080826,6987
20080827,6906
20080828,6848
20080829,7016
20080901,6855
20080902,6687
20080903,6606
20080904,6482
20080905,6388
20080908,6686
20080909,6566
20080910,6631
20080911,6516
20080912,6677
20080916,6406
20080917,6386
20080918,6391
20080919,6549
20080922,6677
20080924,6675
20080925,6658
20080926,6558
20080929,6385
20080930,6211
20081001,6132
20081002,5851
20081003,5636
20081006,5261
20081007,5103
20081008,4607
20081009,4686
20081010,4441
20081014,5101
20081015,5039
20081016,4524
20081017,4629
20081020,4803
20081021,4973
20081022,4647
20081023,4540
20081024,4242
20081027,3947
20081028,4190
20081029,4415
20081030,4848
20081031,4694
20081104,4892
20081105,5242
20081106,4880
20081107,4656
20081110,4911
20081111,4796
20081112,4684
20081113,4449
20081114,4525
20081117,4506
20081118,4441
20081119,4329
20081120,4031
20081121,4184
20081125,4338
20081126,3956
20081127,4047
20081128,4163
20081201,4127
20081202,3799
20081203,3840
20081204,3756
20081205,3715
20081208,3855
20081209,3919
20081210,4067
20081211,4205
20081212,4025
20081215,4261
20081216,4172
20081217,4118
20081218,4145
20081219,4117
20081222,4154
20081224,4036
20081225,4147
20081226,4220
20081229,4260
20081230,4281
20090105,4426
20090106,4503
20090107,4696
20090108,4500
20090109,4456
20090113,4189
20090114,4244
20090115,4100
20090116,4232
20090119,4248
20090120,4162
20090121,4004
20090122,4018
20090123,3898
20090126,3839
20090127,4049
20090128,4100
20090129,4156
20090130,3979
20090202,3929
20090203,3927
20090204,4082
20090205,4113
20090206,4112
20090209,4061
20090210,4028
20090212,3943
20090213,3944
20090216,3917
20090217,3824
20090218,3803
20090219,3793
20090220,3727
20090223,3691
20090224,3647
20090225,3732
20090226,3726
20090227,3762
20090302,3622
20090303,3594
20090304,3673
20090305,3748
20090306,3618
20090309,3574
20090310,3531
20090311,3639
20090312,3563
20090313,3659
20090316,3789
20090317,3904
20090318,3928
20090319,3922
20090323,4094
20090324,4223
20090325,4232
20090326,4325
20090327,4295
20090330,4034
20090331,3967
20090401,4050
20090402,4189
20090403,4195
20090406,4212
20090407,4189
20090408,4088
20090409,4245
20090410,4276
20090413,4353
20090414,4344
20090415,4279
20090416,4272
20090417,4311
20090420,4318
20090421,4230
20090422,4194
20090423,4259
20090424,4204
20090427,4208
20090428,4107
20090430,4227
20090501,4237
20090507,4371
20090508,4444
20090511,4502
20090512,4441
20090513,4489
20090514,4424
20090515,4489
20090518,4416
20090519,4497
20090520,4559
20090521,4551
20090522,4520
20090525,4581
20090526,4608
20090527,4617
20090528,4605
20090529,4614
20090601,4661
20090602,4646
20090603,4651
20090604,4614
20090605,4623
20090608,4640
20090609,4619
20090610,4685
20090611,4685
20090612,4744
20090615,4798
20090616,4655
20090617,4701
20090618,4681
20090619,4713
20090622,4740
20090623,4653
20090624,4654
20090625,4711
20090626,4761
20090629,4730
20090630,4813
20090701,4789
20090702,4749
20090703,4689
20090706,4659
20090707,4643
20090708,4573
20090709,4499
20090710,4491
20090713,4374
20090714,4423
20090715,4416
20090716,4426
20090717,4452
20090721,4543
20090722,4564
20090723,4562
20090724,4602
20090727,4635
20090728,4633
20090729,4631
20090730,4621
20090731,4662
20090803,4658
20090804,4694
20090805,4681
20090806,4680
20090807,4635
20090810,4679
20090811,4733
20090812,4660
20090813,4703
20090814,4709
20090817,4623
20090818,4635
20090819,4605
20090820,4672
20090821,4644
20090824,4735
20090825,4708
20090826,4749
20090827,4716
20090828,4750
20090831,4752
20090901,4755
20090902,4675
20090903,4645
20090904,4583
20090907,4581
20090908,4578
20090909,4570
20090910,4640
20090911,4614
20090914,4559
20090915,4539
20090916,4519
20090917,4549
20090918,4506
20090924,4543
20090925,4469
20090928,4430
20090929,4410
20090930,4437
20091001,4377
20091002,4295
20091005,4302
20091006,4269
20091007,4266
20091008,4250
20091009,4299
20091013,4309
20091014,4275
20091015,4306
20091016,4286
20091019,4299
20091020,4328
20091021,4307
20091022,4271
20091023,4229
20091026,4250
20091027,4185
20091028,4162
20091029,4135
20091030,4154
20091102,4178
20091104,4170
20091105,4152
20091106,4117
20091109,4075
20091110,4077
20091111,4065
20091112,4015
20091113,4037
20091116,4003
20091117,3975
20091118,3934
20091119,3899
20091120,3916
20091124,3863
20091125,3868
20091126,3862
20091127,3802
20091130,3893
20091201,3970
20091202,3966
20091203,4078
20091204,4062
20091207,4100
20091208,4084
20091209,4030
20091210,3982
20091211,4027
20091214,4006
20091215,4000
20091216,4061
20091217,4058
20091218,4066
20091221,4074
20091222,4109
20091224,4086
20091225,4008
20091228,4059
20091229,4059
20091230,4019
20100104,4036
20100105,4076
20100106,4138
20100107,4124
20100108,4148
20100112,4189
20100113,4169
20100114,4190
20100115,4208
20100118,4191
20100119,4182
20100120,4159
20100121,4181
20100122,4126
20100125,4096
20100126,4048
20100127,4021
20100128,4039
20100129,3973
20100201,3968
20100202,4009
20100203,4043
20100204,4073
20100205,3979
20100208,3956
20100209,3917
20100210,3914
20100212,3940
20100215,3918
20100216,3918
20100217,3978
20100218,3981
20100219,3898
20100222,3971
20100223,3968
20100224,3932
20100225,3921
20100226,3937
20100301,3952
20100302,3953
20100303,3954
20100304,3931
20100305,3961
20100308,4006
20100309,3982
20100310,3975
20100311,4010
20100312,4040
20100315,4042
20100316,4042
20100317,4087
20100318,4075
20100319,4104
20100323,4085
20100324,4084
20100325,4075
20100326,4126
20100329,4149
20100330,4215
20100331,4217
20100401,4230
20100402,4182
20100405,4207
20100406,4209
20100407,4192
20100408,4171
20100409,4183
20100412,4220
20100413,4193
20100414,4201
20100415,4233
20100416,4203
20100419,4147
20100420,4165
20100421,4218
20100422,4208
20100423,4219
20100426,4275
20100427,4252
20100428,4167
20100430,4220
20100506,4127
20100507,4029
20100510,4084
20100511,4064
20100512,4066
20100513,4107
20100514,4067
20100517,4016
20100518,3992
20100519,3969
20100520,3947
20100521,3852
20100524,3849
20100525,3795
20100526,3782
20100527,3793
20100528,3822
20100531,3856
20100601,3866
20100602,3824
20100603,3892
20100604,3874
20100607,3765
20100608,3754
20100609,3734
20100610,3759
20100611,3795
20100614,3826
20100615,3815
20100616,3863
20100617,3856
20100618,3857
20100621,3910
20100622,3871
20100623,3813
20100624,3813
20100625,3777
20100628,3755
20100629,3724
20100630,3698
20100701,3648
20100702,3647
20100705,3671
20100706,3701
20100707,3662
20100708,3731
20100709,3725
20100712,3699
20100713,3684
20100714,3733
20100715,3676
20100716,3613
20100720,3582
20100721,3571
20100722,3550
20100723,3603
20100726,3624
20100727,3621
20100728,3693
20100729,3662
20100730,3608
20100802,3601
20100803,3645
20100804,3589
20100805,3641
20100806,3656
20100809,3645
20100810,3630
20100811,3544
20100812,3553
20100813,3625
20100816,3611
20100817,3608
20100818,3629
20100819,3651
20100820,3591
20100823,3584
20100824,3558
20100825,3523
20100826,3551
20100827,3587
20100830,3626
20100831,3524
20100901,3550
20100902,3580
20100903,3598
20100906,3660
20100907,3640
20100908,3582
20100909,3599
20100910,3630
20100913,3644
20100914,3636
20100915,3677
20100916,3657
20100917,3696
20100921,3681
20100922,3680
20100924,3633
20100927,3666
20100928,3656
20100929,3675
20100930,3594
20101001,3588
20101004,3520
20101005,3554
20101006,3595
20101007,3572
20101008,3547
20101012,3461
20101013,3451
20101014,3499
20101015,3450
20101018,3475
20101019,3486
20101020,3464
20101021,3453
20101022,3474
20101025,3463
20101026,3453
20101027,3451
20101028,3430
20101029,3435
20101101,3404
20101102,3390
20101104,3450
20101105,3507
20101108,3534
20101109,3507
20101110,3551
20101111,3577
20101112,3523
20101115,3543
20101116,3526
20101117,3533
20101118,3609
20101119,3612
20101122,3647
20101124,3616
20101125,3625
20101126,3624
20101129,3653
20101130,3599
20101201,3609
20101202,3645
20101203,3659
20101206,3673
20101207,3673
20101208,3712
20101209,3726
20101210,3724
20101213,3764
20101214,3789
20101215,3800
20101216,3804
20101217,3796
20101220,3779
20101221,3794
20101222,3781
20101224,3663
20101227,3657
20101228,3651
20101229,3683
20101230,3680
20110104,3730
20110105,3731
20110106,3778
20110107,3798
20110111,3872
20110112,3925
20110113,4013
20110114,4078
20110117,4184
20110118,4241
20110119,4352
20110120,4459
20110121,4583
20110124,4837
20110125,5043
20110126,5175
20110127,5783
20110128,5995
20110131,6436
20110201,6875
20110202,6975
20110203,6959
20110204,7006
20110207,7051
20110208,7071
20110209,7087
20110210,7129
20110214,7203
20110215,7218
20110216,7226
20110217,7290
20110218,7299
20110221,7317
20110222,7217
20110223,7146
20110224,7045
20110225,7093
20110228,7145
20110301,7205
20110302,7070
20110303,7115
20110304,7141
20110307,7057
20110308,7036
20110309,7085
20110310,7021
20110311,6918
20110314,6459
20110315,5794
20110316,6122
20110317,6152
20110318,6310
20110322,6578
20110323,6538
20110324,6532
20110325,6540
20110328,6536
20110329,6555
20110330,6634
20110331,6675
20110401,6608
20110404,6548
20110405,6459
20110406,6400
20110407,6371
20110408,6463
20110411,6476
20110412,6375
20110413,6396
20110414,6406
20110415,6364
20110418,6343
20110419,6289
20110420,6329
20110421,6352
20110422,6317
20110425,6315
20110426,6269
20110427,6301
20110428,6391
20110502,6445
20110506,6415
20110509,6380
20110510,6388
20110511,6375
20110512,6307
20110513,6221
20110516,6134
20110517,6101
20110518,6156
20110519,6101
20110520,6050
20110523,5999
20110524,6024
20110525,6017
20110526,6065
20110527,6046
20110530,6049
20110531,6129
20110601,6117
20110602,6038
20110603,5962
20110606,5887
20110607,5925
20110608,5925
20110609,5908
20110610,5935
20110613,5910
20110614,6010
20110615,6006
20110616,5940
20110617,5890
20110620,5959
20110621,6046
20110622,6114
20110623,6080
20110624,6116
20110627,6059
20110628,6105
20110629,6195
20110630,6277
20110701,6290
20110704,6353
20110705,6363
20110706,6379
20110707,6308
20110708,6340
20110711,6308
20110712,6209
20110713,6229
20110714,6163
20110715,6163
20110719,6101
20110720,6132
20110721,6073
20110722,6011
20110725,5915
20110726,5880
20110727,5771
20110728,5444
20110729,5205
20110801,5060
20110802,4977
20110803,4850
20110804,4819
20110805,4681
20110808,4546
20110809,4481
20110810,4540
20110811,4548
20110812,4541
20110815,4551
20110816,4542
20110817,4507
20110818,4449
20110819,4365
20110822,4309
20110823,4344
20110824,4256
20110825,4261
20110826,4260
20110829,4240
20110830,4250
20110831,4219
20110901,4209
20110902,4138
20110905,4075
20110906,3998
20110907,4041
20110908,4060
20110909,4051
20110912,3965
20110913,3982
20110914,3924
20110915,3960
20110916,4029
20110920,3953
20110921,3947
20110922,3874
20110926,3785
20110927,3855
20110928,3908
20110929,3918
20110930,3901
20111003,3777
20111004,3715
20111005,3651
20111006,3703
20111007,3702
20111011,3762
20111012,3754
20111013,3767
20111014,3709
20111017,3759
20111018,3698
20111019,3675
20111020,3636
20111021,3604
20111024,3646
20111025,3585
20111026,3576
20111027,3638
20111028,3637
20111031,3590
20111101,3526
20111102,3462
20111104,3518
20111107,3511
20111108,3450
20111109,3503
20111110,3425
20111111,3398
20111114,3431
20111115,3406
20111116,3368
20111117,3386
20111118,3360
20111121,3351
20111122,3345
20111124,3279
20111125,3273
20111128,3295
20111129,3366
20111130,3368
20111201,3402
20111202,3415
20111205,3424
20111206,3369
20111207,3423
20111208,3393
20111209,3349
20111212,3387
20111213,3371
20111214,3359
20111215,3309
20111216,3290
20111219,3251
20111220,3255
20111221,3285
20111222,3271
20111226,3274
20111227,3272
20111228,3264
20111229,3258
20111230,3283
20120104,3310
20120105,3285
20120106,3246
20120110,3205
20120111,3216
20120112,3181
20120113,3208
20120116,3160
20120117,3181
20120118,3199
20120119,3224
20120120,3281
20120123,3293
20120124,3283
20120125,3320
20120126,3305
20120127,3298
20120130,3273
20120131,3255
20120201,3249
20120202,3257
20120203,3169
20120206,3193
20120207,3200
20120208,3230